Temperature
14 14 14 14 14 14 14 14 14 14 14 14 14 14 14 14 14 14 14 14 14 14 14 14 14 15 15 15 15 15 15 15 15 15 15 15 15 15 14 14 15 15 15
14 14 14 14 14 14 14 14 14 14 14 14 14 14 14 14 14 14 14 14 14 14 14 14 14 14 15 15 15 15 15 14 14 14 14 14 14 14 14 14 14 14 14
13 14 13 14 13 13 13 13 13 14 14 14 14 14 14 14 14 14 14 14 14 14 14 14 14 14 14 14 14 14 14 14 14 14 14 14 14 14 14 14 14 14 14
13 13 13 13 13 13 13 13 13 13 13 13 13 13 13 13 13 14 13 13 14 14 14 14 14 14 14 14 14 14 14 14 13 13 14 13 13 13 13 14 14 14 14
12 12 13 13 13 13 13 13 13 13 13 13 13 13 13 13 13 13 13 13 13 13 13 14 14 14 14 14 14 14 14 13 13 13 13 13 13 13 13 13 13 13 13
12 12 12 12 12 12 12 12 12 13 13 13 13 13 13 13 13 13 13 13 13 13 13 13 13 13 13 14 13 13 13 13 13 13 13 13 13 13 13 13 13 13 13
11 12 12 12 12 12 12 12 12 12 12 12 12 12 12 12 13 13 13 13 13 13 13 13 13 13 13 13 13 13 13 12 12 12 12 12 12 13 13 13 13 13 13
11 11 11 11 11 12 12 12 12 12 12 12 12 12 12 12 12 12 12 12 13 13 13 13 13 13 13 13 13 13 12 12 12 12 12 12 12 12 12 12 13 13 13
10 11 11 11 11 11 11 11 12 12 12 12 12 12 12 12 12 12 12 12 12 12 12 12 12 13 13 13 12 12 12 12 12 12 12 12 12 12 12 12 12 12 12
10 10 10 11 11 11 11 11 11 12 12 12 12 12 12 12 12 12 12 12 12 12 12 12 12 12 12 12 12 12 12 11 11 11 11 11 11 11 12 12 12 12 12
9 9 10 10 10 10 11 11 11 11 11 11 11 12 12 12 12 12 12 12 12 12 12 12 12 12 12 12 12 11 11 11 11 11 11 11 11 11 11 11 11 11 12
9 9 9 9 10 10 10 10 11 11 11 11 11 11 11 11 11 11 11 11 11 11 11 11 11 11 11 11 11 11 11 11 11 11 10 11 11 11 11 11 11 11 11
8 8 9 9 9 10 10 10 10 10 10 10 11 11 11 11 11 11 11 11 11 11 11 11 11 11 11 11 11 11 10 10 10 10 10 10 10 10 11 11 11 11 11
8 8 8 8 9 9 9 9 10 10 10 10 10 10 10 10 10 10 10 11 11 10 10 10 10 10 10 10 10 10 10 10 10 10 10 10 10 10 10 10 10 10 10
7 7 7 8 8 8 9 9 9 9 9 10 10 10 10 10 10 10 10 10 10 10 10 10 10 10 10 10 10 10 10 10 10 10 10 9 10 9 10 10 10 10 10
7 7 7 7 7 8 8 8 9 9 9 9 9 9 9 9 9 9 9 9 10 9 9 10 9 9 9 9 9 9 9 9 9 9 9 9 9 9 9 9 9 9 9
6 6 7 7 7 7 7 7 8 8 8 8 8 9 9 9 9 9 9 9 9 9 9 9 9 9 9 9 9 9 9 9 9 9 9 9 9 9 9 9 9 9 9
6 6 6 6 6 6 7 7 7 7 8 8 8 8 8 8 8 8 9 9 9 9 8 8 8 8 8 8 8 8 8 8 8 8 8 8 8 8 9 9 8 8 8
6 6 6 6 6 6 6 6 6 7 7 7 7 7 8 8 8 8 8 8 8 8 8 8 8 8 8 8 8 8 8 8 8 8 8 8 8 8 8 8 8 8 8
5 5 5 5 5 5 5 6 6 6 6 6 7 7 7 7 7 7 7 7 7 7 7 7 7 7 7 7 7 7 7 7 7 7 7 7 7 7 7 7 7 7 7
5 5 5 5 5 5 5 5 5 5 5 6 6 6 6 6 7 7 7 7 7 7 7 7 7 7 7 7 6 6 6 6 6 6 6 7 7 7 7 7 7 7 7
4 4 4 4 4 4 4 4 4 4 5 5 5 5 6 6 6 6 6 6 6 6 6 6 6 6 6 6 6 5 5 5 5 5 6 6 6 6 6 6 6 6 6
3 3 3 3 3 3 3 3 3 4 4 4 4 5 5 5 5 5 5 6 6 5 5 5 5 5 5 5 5 5 4 4 4 4 5 5 5 5 5 5 5 5 5
2 2 3 3 3 3 3 3 3 3 3 3 4 4 4 4 4 4 5 5 5 5 5 5 4 4 5 5 4 4 4 4 4 3 4 4 4 4 5 5 5 5 5
1 1 2 2 2 2 2 2 2 2 3 3 3 3 3 4 4 4 4 4 4 4 4 4 4 4 4 4 4 4 4 4 3 3 3 3 4 4 4 4 4 4 4
0 0 1 1 1 1 1 2 2 2 2 2 2 3 3 3 3 3 3 3 3 4 4 4 3 3 3 3 3 3 3 3 3 3 3 3 3 3 3 4 4 4 4
Wind_Speed
5 6 6 7 8 9 10 10 11 11 12 12 12 12 13 13 13 14 14 14 14 15 15 16 16 16 17 18 18 18 18 18 19 19 19 19 18 18 18 18 17 17 19
6 8 8 9 9 9 10 11 11 12 12 12 12 12 12 13 13 14 14 14 14 14 15 15 15 16 16 16 16 16 16 16 16 17 17 17 17 17 18 18 18 16 18
8 9 8 9 10 10 10 11 11 11 12 11 12 12 12 13 13 13 14 14 14 14 15 15 15 15 15 15 15 15 14 13 13 13 14 14 15 16 17 17 17 17 17
8 9 8 10 11 11 11 11 11 11 12 12 12 11 12 13 13 13 14 14 14 14 14 14 14 14 14 14 14 13 13 12 12 12 13 13 13 16 17 17 17 16 16
8 8 9 11 11 11 11 11 11 11 11 12 12 12 12 12 13 13 13 14 14 14 14 14 14 14 13 13 12 12 12 12 12 12 14 14 14 15 16 16 16 16 16
7 9 10 11 11 11 11 11 11 11 11 12 12 11 12 12 12 12 13 13 13 13 13 13 13 13 13 12 12 11 11 11 11 12 14 14 13 14 15 15 16 15 15
7 9 9 10 11 10 10 11 12 11 11 11 11 11 11 12 13 12 12 13 12 12 12 12 12 13 12 12 11 11 11 10 11 12 13 13 13 14 14 14 14 15 15
7 9 9 9 10 10 10 11 12 12 11 10 10 11 11 12 12 12 12 12 12 12 12 12 12 12 12 11 11 11 11 10 10 11 13 13 13 13 14 14 14 14 14
8 8 8 8 9 9 10 10 10 11 10 10 10 11 11 11 12 12 12 11 11 11 11 11 11 11 11 11 10 10 10 10 10 11 12 12 13 13 13 13 13 13 13
7 7 7 7 7 8 8 9 9 10 10 10 10 10 11 11 11 11 11 10 10 10 10 11 11 11 10 10 9 9 9 9 10 12 11 11 12 12 12 12 12 12 13
6 5 6 6 7 6 7 8 8 9 10 9 9 9 9 9 10 10 10 10 10 10 10 10 10 9 9 8 8 8 8 9 11 10 10 11 11 12 12 11 11 11 12
5 4 4 5 6 6 6 6 7 7 8 7 7 7 7 8 9 9 10 10 10 10 9 9 8 8 7 7 7 8 8 9 9 9 10 11 11 11 11 11 10 10 10
5 4 4 4 6 6 5 5 5 6 6 6 6 6 6 7 7 8 8 8 8 8 7 6 7 7 7 7 7 7 8 8 9 9 9 10 10 10 10 10 9 9 9
5 4 4 4 5 6 6 5 5 5 5 5 5 5 5 5 5 6 6 6 6 5 5 6 5 6 6 7 7 7 7 7 8 8 9 10 10 9 9 9 9 9 8
5 4 4 4 4 5 5 4 5 5 5 6 5 5 5 5 4 4 5 5 5 5 5 5 5 5 6 6 6 6 7 7 7 8 8 9 9 8 8 8 8 8 8
5 5 4 4 5 5 4 4 4 5 5 5 5 5 5 5 4 4 5 5 5 5 4 4 5 4 5 5 5 6 6 6 6 7 8 7 7 7 7 7 7 7 7
5 5 5 4 5 4 4 4 4 5 5 5 4 5 5 5 5 4 4 4 4 5 5 5 5 5 4 5 4 5 5 5 6 7 7 6 6 6 7 7 7 7 7
5 5 5 4 4 4 4 3 4 5 5 4 4 4 4 5 5 5 4 3 4 5 4 3 3 3 3 3 2 3 3 4 5 5 6 6 6 5 6 6 6 6 6
5 6 5 4 4 4 3 3 4 4 4 4 4 4 4 4 4 5 4 3 4 4 3 3 3 2 2 2 2 2 2 2 3 4 5 6 6 6 6 5 5 6 6
4 5 5 4 4 4 3 3 2 3 3 4 4 4 4 4 4 4 4 3 3 3 2 2 2 2 2 1 1 2 1 1 2 2 3 4 5 5 5 5 5 5 5
4 4 4 5 4 3 2 2 2 1 1 2 3 3 3 4 4 4 4 3 2 2 2 2 2 3 2 1 2 2 2 1 2 1 2 3 3 4 4 4 4 4 4
2 2 3 4 4 4 2 2 1 1 1 2 2 3 3 3 3 4 4 3 2 2 2 2 2 1 1 1 2 1 1 1 1 0 1 1 2 3 3 3 3 3 2
2 1 1 1 2 4 3 2 1 1 1 1 1 1 2 3 3 4 4 4 3 3 2 2 3 2 2 1 1 2 2 1 1 1 2 1 1 1 1 2 2 2 1
1 1 0 1 1 2 3 3 3 2 2 2 2 1 2 3 3 4 4 4 4 3 3 2 2 1 3 2 1 0 1 2 1 1 2 1 2 2 1 1 1 1 1
2 1 0 0 0 1 2 3 3 3 2 1 1 2 2 2 3 4 5 4 4 3 3 3 2 2 2 3 2 1 0 0 2 2 2 2 2 2 1 1 2 2 2
2 2 1 0 0 1 1 3 4 3 3 3 3 3 3 2 2 4 5 4 4 3 4 4 4 4 3 3 3 2 2 2 2 2 2 2 3 2 2 2 3 4 4
Wind_Direction
102 105 120 104 95 91 88 86 86 88 87 87 85 85 83 81 81 81 80 81 81 81 81 80 77 76 73 73 73 71 71 71 73 72 70 69 71 72 71 71 72 71 72
111 116 121 107 99 96 94 88 87 87 89 87 86 86 86 83 82 81 80 81 81 80 80 79 78 77 75 74 74 73 72 71 72 75 73 70 71 72 72 71 73 76 73
106 116 116 108 103 97 95 92 90 88 87 88 87 86 85 85 83 81 80 81 81 80 80 78 78 77 75 74 74 73 71 68 67 72 75 75 73 74 75 75 75 76 75
102 112 113 108 103 99 94 93 93 91 88 87 88 86 85 84 83 83 81 80 80 79 80 79 78 78 76 74 74 72 67 61 58 62 72 73 73 75 76 75 74 74 75
97 103 111 111 105 101 97 93 94 94 91 87 85 85 86 85 82 83 84 81 78 78 79 80 79 78 75 74 72 68 62 58 55 64 69 70 72 76 76 74 74 73 74
96 97 107 109 106 103 99 96 94 96 95 91 88 85 84 84 85 83 84 83 80 79 80 82 80 80 77 74 70 63 55 51 58 65 69 70 71 75 75 74 72 71 72
93 96 106 106 107 106 103 98 96 94 93 93 94 90 86 83 83 82 81 82 81 81 82 83 83 82 79 74 69 63 54 48 64 64 70 70 71 75 75 74 72 71 71
90 92 100 102 105 103 101 98 95 94 92 88 90 88 86 85 84 82 80 79 80 81 82 84 85 84 82 76 69 62 52 56 61 67 71 72 74 75 75 73 72 71 70
88 90 92 96 98 100 99 97 96 94 92 88 84 84 85 86 85 83 81 79 80 81 81 81 82 82 80 77 71 62 52 55 51 63 71 71 74 74 73 73 73 72 72
84 84 89 93 93 94 98 99 99 97 93 89 82 82 84 84 83 81 79 78 79 81 83 82 81 81 81 76 67 58 56 52 58 63 66 71 74 73 72 72 75 74 72
92 83 81 82 85 92 100 100 98 97 93 88 84 84 83 80 80 78 77 77 77 79 83 83 82 82 79 73 61 55 60 58 61 62 65 73 76 74 72 73 73 76 73
111 97 78 77 82 84 90 98 98 99 96 92 87 83 83 83 81 79 81 77 74 73 77 79 78 75 70 62 56 57 56 62 63 63 67 74 75 75 73 71 71 74 75
116 106 88 81 86 83 81 90 87 92 96 92 90 89 89 89 87 82 79 73 70 70 67 70 68 62 61 63 62 58 54 61 65 64 69 76 74 73 72 70 69 70 74
124 113 101 96 91 89 88 87 87 84 86 86 86 88 85 79 78 83 80 77 72 65 56 57 62 55 59 66 67 64 63 67 70 69 71 77 74 71 70 69 68 66 69
137 130 115 104 96 90 88 88 87 82 82 83 83 79 80 83 88 83 81 80 71 68 59 56 59 56 57 61 66 67 63 73 79 75 75 76 73 71 69 68 68 68 67
148 142 127 118 107 99 89 88 90 89 95 93 85 74 74 80 82 86 83 76 69 68 60 56 60 59 58 57 56 61 65 70 79 79 77 73 69 68 68 65 65 66 67
149 141 139 132 115 110 102 102 102 102 102 99 98 93 81 79 81 83 88 79 71 72 67 61 57 58 60 56 52 50 56 64 73 80 81 78 70 63 65 68 68 67 65
143 141 147 144 130 121 113 111 108 107 103 104 109 107 100 88 90 84 84 81 81 85 73 70 70 63 58 51 44 45 51 63 69 80 85 83 76 66 63 66 67 64 62
148 147 147 135 135 132 125 122 114 111 108 112 112 110 112 107 101 96 92 87 87 82 77 83 73 81 77 51 41 49 56 68 75 81 83 85 83 79 71 63 61 57 55
141 144 147 143 140 134 128 118 112 107 111 114 113 115 125 124 114 105 105 94 87 89 86 83 94 80 97 86 51 42 37 106 88 80 87 90 89 87 80 71 63 51 46
129 137 152 151 152 142 141 145 147 150 140 111 116 123 131 139 139 124 115 105 96 111 119 108 101 105 103 88 70 47 14 78 119 85 86 92 92 94 89 84 77 67 50
126 141 152 163 162 159 166 166 156 150 160 148 135 131 140 145 152 147 132 135 119 110 121 120 113 111 142 116 101 105 40 348 330 239 105 133 112 95 90 96 86 78 62
89 94 172 164 167 164 160 139 125 101 94 139 160 166 161 170 169 165 158 154 156 149 160 162 157 133 161 214 144 132 137 211 299 275 221 187 158 122 107 97 91 77 53
88 76 64 137 151 166 156 164 171 182 200 214 189 186 199 192 188 177 173 171 171 166 175 196 180 178 159 181 232 243 173 153 161 276 281 234 206 189 183 138 128 149 187
68 68 52 75 161 176 177 180 187 205 209 191 174 190 214 218 205 192 188 183 185 184 185 194 203 205 186 184 192 206 232 255 193 192 240 260 270 245 220 196 188 205 210
52 47 38 39 278 239 217 203 200 205 205 196 198 203 213 228 225 208 205 199 199 196 196 199 203 210 212 208 207 199 188 193 198 196 217 239 255 266 258 234 210 200 207
Height
1514 1516 1518 1519 1521 1522 1524 1525 1526 1528 1529 1530 1531 1532 1533 1534 1534 1535 1536 1537 1538 1539 1539 1540 1541 1541 1542 1542 1543 1544 1544 1545 1545 1546 1546 1547 1547 1547 1548 1548 1548 1549 1549
1513 1515 1517 1519 1521 1522 1524 1525 1527 1528 1529 1531 1532 1533 1534 1535 1536 1536 1537 1538 1539 1540 1540 1541 1542 1542 1543 1544 1545 1545 1546 1547 1547 1548 1548 1549 1550 1550 1550 1550 1551 1551 1551
1513 1515 1517 1519 1521 1523 1524 1526 1528 1529 1530 1531 1532 1534 1535 1536 1537 1537 1538 1539 1540 1541 1542 1542 1543 1544 1544 1545 1546 1547 1548 1549 1549 1550 1550 1551 1551 1552 1552 1552 1553 1553 1553
1513 1515 1517 1519 1521 1523 1525 1526 1528 1529 1531 1532 1533 1534 1535 1536 1537 1538 1539 1540 1541 1542 1543 1543 1544 1545 1546 1547 1548 1549 1549 1550 1551 1552 1552 1552 1553 1554 1554 1554 1554 1555 1555
1513 1515 1517 1519 1521 1523 1525 1527 1528 1530 1531 1532 1534 1535 1536 1537 1538 1539 1540 1541 1542 1543 1543 1544 1545 1546 1547 1548 1549 1550 1551 1552 1552 1553 1554 1554 1554 1555 1555 1556 1556 1557 1557
1513 1515 1517 1519 1521 1523 1525 1527 1529 1530 1531 1533 1534 1535 1536 1538 1538 1539 1540 1541 1542 1543 1544 1545 1546 1547 1548 1549 1550 1551 1552 1553 1553 1554 1555 1555 1556 1557 1557 1557 1558 1558 1558
1513 1515 1517 1519 1521 1523 1525 1527 1528 1530 1531 1533 1534 1535 1537 1538 1539 1540 1541 1542 1543 1544 1545 1546 1546 1547 1548 1549 1550 1552 1553 1554 1554 1555 1556 1557 1557 1558 1558 1558 1559 1559 1560
1513 1514 1516 1518 1521 1522 1524 1526 1528 1530 1531 1533 1534 1535 1537 1538 1539 1540 1541 1542 1543 1544 1545 1546 1547 1548 1549 1550 1551 1552 1553 1554 1555 1556 1557 1557 1558 1559 1559 1559 1560 1560 1561
1513 1514 1516 1518 1520 1522 1524 1526 1527 1529 1531 1532 1534 1535 1536 1538 1539 1540 1541 1542 1543 1544 1545 1546 1547 1548 1549 1550 1552 1553 1553 1554 1555 1556 1557 1558 1559 1559 1560 1560 1561 1561 1561
1512 1514 1515 1517 1519 1521 1523 1525 1527 1528 1530 1532 1533 1535 1536 1537 1538 1539 1541 1542 1543 1544 1545 1546 1547 1548 1549 1550 1552 1553 1554 1555 1556 1556 1557 1558 1559 1560 1560 1561 1561 1562 1562
1511 1513 1514 1516 1518 1520 1522 1524 1526 1527 1529 1531 1532 1534 1535 1537 1538 1539 1540 1541 1543 1544 1545 1546 1547 1548 1549 1550 1552 1553 1554 1554 1555 1556 1557 1559 1559 1560 1560 1561 1562 1562 1563
1510 1512 1513 1515 1517 1519 1521 1523 1524 1526 1528 1530 1531 1533 1535 1536 1537 1538 1539 1541 1542 1543 1544 1545 1546 1548 1549 1550 1551 1552 1553 1554 1555 1556 1557 1558 1559 1560 1560 1561 1562 1562 1563
1509 1510 1512 1514 1516 1517 1519 1521 1523 1525 1527 1529 1530 1532 1533 1535 1536 1537 1538 1539 1541 1542 1543 1544 1546 1547 1548 1549 1550 1551 1553 1554 1555 1556 1557 1558 1559 1560 1560 1561 1562 1562 1563
1508 1509 1511 1512 1514 1516 1517 1519 1521 1523 1525 1527 1529 1531 1532 1533 1534 1535 1537 1538 1539 1541 1542 1543 1544 1546 1547 1548 1549 1551 1552 1553 1554 1555 1556 1557 1558 1559 1560 1561 1561 1562 1562
1506 1508 1509 1511 1512 1514 1516 1518 1519 1521 1523 1525 1527 1529 1530 1532 1533 1534 1535 1537 1538 1540 1541 1542 1543 1544 1546 1547 1548 1549 1551 1552 1553 1554 1555 1556 1557 1558 1559 1560 1561 1561 1561
1504 1506 1507 1509 1511 1512 1514 1516 1517 1519 1521 1523 1525 1527 1528 1530 1531 1532 1534 1535 1537 1538 1539 1541 1542 1543 1545 1546 1547 1548 1550 1551 1552 1553 1554 1555 1556 1557 1558 1559 1559 1560 1560
1503 1504 1506 1507 1509 1511 1512 1514 1516 1517 1519 1521 1523 1525 1527 1528 1529 1530 1532 1533 1535 1537 1538 1539 1541 1542 1543 1545 1546 1547 1548 1549 1550 1551 1552 1553 1554 1555 1556 1557 1558 1559 1559
1501 1502 1504 1505 1507 1509 1510 1512 1514 1515 1517 1519 1521 1523 1524 1526 1527 1528 1530 1532 1533 1535 1536 1537 1539 1540 1542 1543 1544 1545 1547 1548 1549 1550 1551 1552 1552 1553 1554 1555 1556 1557 1558
1499 1500 1501 1503 1505 1507 1508 1510 1512 1513 1515 1517 1518 1520 1522 1523 1525 1526 1528 1529 1531 1532 1534 1535 1536 1538 1539 1541 1542 1543 1545 1546 1547 1548 1549 1550 1551 1552 1553 1553 1554 1555 1556
1497 1499 1500 1501 1503 1505 1506 1508 1509 1511 1513 1514 1516 1518 1519 1521 1522 1524 1525 1527 1528 1530 1531 1532 1534 1536 1537 1538 1540 1541 1543 1544 1545 1546 1547 1548 1549 1550 1551 1551 1552 1553 1553
1495 1497 1498 1499 1500 1502 1504 1505 1506 1508 1510 1511 1513 1515 1516 1518 1519 1521 1522 1524 1525 1526 1528 1530 1531 1533 1534 1536 1537 1539 1540 1542 1542 1544 1545 1546 1547 1547 1548 1549 1549 1550 1551
1492 1494 1496 1497 1498 1500 1501 1503 1505 1506 1507 1509 1511 1512 1514 1515 1516 1518 1519 1521 1522 1523 1525 1526 1528 1529 1531 1533 1534 1535 1537 1540 1540 1541 1542 1543 1544 1545 1545 1546 1547 1547 1548
1490 1491 1493 1494 1496 1497 1499 1501 1502 1503 1505 1506 1507 1508 1510 1512 1513 1514 1516 1517 1519 1520 1521 1523 1525 1526 1527 1530 1531 1533 1534 1535 1536 1537 1538 1539 1540 1541 1542 1543 1543 1544 1545
1487 1489 1490 1492 1493 1495 1496 1497 1498 1499 1501 1502 1504 1505 1507 1508 1510 1511 1512 1514 1515 1516 1518 1519 1521 1523 1524 1526 1528 1529 1532 1532 1533 1533 1535 1535 1536 1537 1538 1539 1540 1540 1541
1485 1486 1488 1489 1490 1491 1493 1494 1495 1497 1498 1499 1501 1502 1503 1505 1506 1507 1509 1510 1511 1513 1514 1516 1517 1519 1520 1522 1523 1525 1527 1528 1529 1530 1530 1531 1532 1533 1534 1535 1536 1537 1537
1484 1484 1485 1486 1487 1488 1489 1491 1492 1493 1494 1495 1497 1498 1499 1500 1502 1503 1505 1506 1507 1508 1510 1512 1513 1515 1516 1518 1520 1521 1522 1524 1525 1526 1526 1526 1527 1528 1529 1530 1531 1532 1533